2018 RY1 |
ephemeris |
date |
magn |
radius |
delta |
ra |
dec |
elong |
phase |
Today | 19 Oct 2025 | 25.1 | 0.550 AU | 1.516 AU | 13h02m | -06°49' | 8.4° | 15.4° |
2018 RY1 - 2025-10-19
astro.vanbuitenen.nl
The interactive orbit chart above shows the body's path through the solar system and its position at the given date.
Green and blue lines are shown perpendicular to the ecliptic plane: Green if the path is above the ecliptic plane, blue if it is below.
(Left-click and drag to rotate the view; Right-click and drag to move the view; Use scroll wheel to zoom in our out.)
The orbital elements of 2018 RY1 are:
e (Eccentricity) : 0.3387196
a (Semimajor axis) : 0.8227084
i (Inclination) : 1.16946
Ω (Longitude of ascending node) : 199.60718
ω (Argument of perihelion) : 325.04330
M (Mean anomaly) : 147.43531
Epoch : 2025 May 05
L (Longitude of perihelion) : 164.65608
B (Latitude of perihelion) : -0.67002
P (Orbital period in years) : 0.75
The light curve chart below shows the estimated development of the minor planet's magnitude.
The all-sky chart below shows the path of the minor planet over the same period as the light curve. The current position is marked yellow.
The following chart shows the path of the minor planet in the next few days. The field of view is optimized for (~10x50) binoculars and finderscopes.
Ephemerides:
Date Time RA (2000) DEC (2000) delta radius elong phase PA magn
2025-10-19 00:00 UT 13 02 49.3 -06 49 60 1.516 0.550 8.4 15.4 292 25.1
2025-10-19 17:55 UT 13 07 16.7 -07 16 27 1.521 0.552 8.0 14.5 292 25.0
2025-10-20 00:00 UT 13 08 47.4 -07 25 23 1.522 0.552 7.8 14.2 292 25.0
2025-10-21 00:00 UT 13 14 45.3 -08 00 22 1.528 0.555 7.2 13.0 291 25.0
2025-10-22 00:00 UT 13 20 42.9 -08 34 53 1.534 0.558 6.6 11.9 291 25.0
2025-10-23 00:00 UT 13 26 40.2 -09 08 55 1.540 0.561 6.1 10.8 291 25.0
2025-10-24 00:00 UT 13 32 37.0 -09 42 27 1.546 0.564 5.5 9.7 291 24.9
Terminology:
delta: distance between minor planet and earth in AU
radius: distance between minor planet and sun in AU
magn: magnitude (brightness) estimate
ra: right ascension in hours (24h = 360deg)
dec: declination in degrees
elong: elongation in degrees (angle sun-earth-minor planet)
phase: phase angle in degrees (angle sun-minor planet-earth)
AU: Astronomical Unit (mean distance between earth and sun: 149597870.7 km
Orbital elements provided by the MPC (Minor Planet Center).
Calculations by a modified version of AAPlus, a C# implementation of the AA+ project by PJ Naughter from the algorithms presented in the book "Astronomical Algorithms" by Jean Meeus.
NGC2000 dso catalog and star labels from VizieR as provided by the Strasbourg astronomical Data Center.
Tycho2 catalog from the ESO archive.